Location: Monroe
(41.9160°N, 83.3980°W)
Time: 12:10:59
(UTC-04:00)

ISS - All Passes

Search period start: 24 August 2016 00:00
Search period end: 03 September 2016 00:00
Orbit: 402 x 406 km, 51.6° (Epoch: 25 August)

Date Brightness Start Highest point End Pass type
(mag) Time Alt. Az. Time Alt. Az. Time Alt. Az.
24 Aug - 10:20:16 10° S 10:22:52 22° SE 10:25:28 10° E daylight
24 Aug - 11:55:58 10° WSW 11:59:09 46° NNW 12:02:21 10° NE daylight
24 Aug - 13:33:59 10° NW 13:36:13 17° N 13:38:28 10° NNE daylight
24 Aug - 15:11:21 10° NNW 15:13:38 17° N 15:15:55 10° NE daylight
24 Aug - 16:47:28 10° NW 16:50:41 49° NNE 16:53:53 10° ESE daylight
24 Aug - 18:24:26 10° W 18:26:56 20° SW 18:29:25 10° S daylight
25 Aug - 09:29:29 10° SSE 09:30:42 12° SE 09:31:55 10° ESE daylight
25 Aug - 11:03:26 10° WSW 11:06:43 82° NW 11:10:01 10° NE daylight
25 Aug - 12:41:02 10° WNW 12:43:34 20° NNW 12:46:07 10° NE daylight
25 Aug - 14:18:54 10° NW 14:20:58 15° N 14:23:02 10° NE daylight
25 Aug - 15:55:11 10° NW 15:58:11 31° NNE 16:01:10 10° E daylight
25 Aug - 17:31:38 10° WNW 17:34:42 37° SW 17:37:45 10° SSE daylight
26 Aug - 10:11:09 10° SW 10:14:21 51° SE 10:17:34 10° ENE daylight
26 Aug - 11:48:07 10° W 11:50:59 27° NNW 11:53:50 10° NE daylight
26 Aug - 13:26:15 10° NW 13:28:16 15° N 13:30:16 10° NE daylight
26 Aug - 15:02:55 10° NW 15:05:36 23° NNE 15:08:18 10° ENE daylight
26 Aug - 16:39:05 10° WNW 16:42:22 74° SW 16:45:38 10° SE daylight
27 Aug - 09:19:14 10° SSW 09:22:03 27° SE 09:24:53 10° ENE daylight
27 Aug - 10:55:18 10° W 10:58:25 39° NNW 11:01:33 10° NE daylight
27 Aug - 12:33:24 10° NW 12:35:33 16° N 12:37:42 10° NNE daylight
27 Aug - 14:10:35 10° NNW 14:12:58 18° NNE 14:15:20 10° ENE daylight
27 Aug - 15:46:41 10° NW 15:49:56 60° NNE 15:53:11 10° ESE daylight
27 Aug - 17:23:57 10° W 17:26:06 16° SW 17:28:14 10° S daylight
28 Aug - 08:27:57 10° SSE 08:29:49 14° SE 08:31:42 10° E daylight
28 Aug - 10:02:40 10° WSW 10:05:56 67° NNW 10:09:12 10° NE daylight
28 Aug - 11:40:26 10° WNW 11:42:52 19° NNW 11:45:18 10° NE daylight
28 Aug - 13:18:09 10° NNW 13:20:16 16° N 13:22:22 10° NE daylight
28 Aug - 14:54:21 10° NW 14:57:26 36° NNE 15:00:30 10° E daylight
28 Aug - 16:30:55 10° WNW 16:33:51 30° SW 16:36:46 10° SSE daylight
29 Aug - 09:10:15 10° SW 09:13:30 65° SE 09:16:46 10° ENE daylight
29 Aug - 10:47:27 10° WNW 10:50:12 24° NNW 10:52:58 10° NE daylight
29 Aug - 12:25:31 10° NW 12:27:31 15° N 12:29:31 10° NE daylight
29 Aug - 14:02:02 10° NW 14:04:50 25° NNE 14:07:38 10° E daylight
29 Aug - 15:38:15 10° WNW 15:41:30 59° SW 15:44:44 10° SE daylight
30 Aug - 08:18:09 10° SSW 08:21:08 33° SE 08:24:08 10° ENE daylight
30 Aug - 09:54:34 10° W 09:57:35 34° NNW 10:00:38 10° NE daylight
30 Aug - 11:32:41 10° NW 11:34:47 16° N 11:36:52 10° NNE daylight
30 Aug - 13:09:41 10° NW 13:12:10 19° NNE 13:14:39 10° ENE daylight
30 Aug - 14:45:47 10° NW 14:49:04 73° NNE 14:52:21 10° ESE daylight
30 Aug - 16:23:29 10° W 16:25:08 13° SW 16:26:47 10° SSW daylight
31 Aug - 07:26:33 10° S 07:28:50 18° SE 07:31:08 10° E daylight
31 Aug - 09:01:48 10° WSW 09:05:02 55° NNW 09:08:17 10° NE daylight
31 Aug - 10:39:42 10° WNW 10:42:02 18° NNW 10:44:22 10° NNE daylight
31 Aug - 12:17:15 10° NNW 12:19:26 16° N 12:21:37 10° NE daylight
31 Aug - 13:53:23 10° NW 13:56:33 42° NNE 13:59:42 10° E daylight
31 Aug - 15:30:08 10° WNW 15:32:52 24° SW 15:35:36 10° SSE daylight
01 Sep - 08:09:16 10° SW 08:12:32 81° SE 08:15:50 10° ENE daylight
01 Sep - 09:46:41 10° WNW 09:49:19 22° NNW 09:51:58 10° NE daylight
01 Sep - 11:24:40 10° NW 11:26:40 15° N 11:28:41 10° NE daylight
01 Sep - 13:01:02 10° NW 13:03:56 28° NNE 13:06:50 10° E daylight
01 Sep - 14:37:21 10° WNW 14:40:32 47° SW 14:43:40 10° SE daylight
02 Sep - 07:17:01 10° SSW 07:20:07 41° SE 07:23:14 10° ENE daylight
02 Sep - 08:53:42 10° W 08:56:39 30° NNW 08:59:36 10° NE daylight
02 Sep - 10:31:51 10° NW 10:33:53 15° N 10:35:55 10° NE daylight
02 Sep - 12:08:39 10° NW 12:11:15 21° NNE 12:13:50 10° ENE daylight
02 Sep - 13:44:47 10° NW 13:48:05 89° NNE 13:51:21 10° SE daylight
02 Sep - 15:23:18 10° WSW 15:24:03 11° SW 15:24:48 10° SW daylight
